Results: 2014 ITU World Triathlon Grand Final Edmonton | 35-39 Male AG Sprint
Edmonton, Canada • 29 Aug, 2014
Pos First Name Last Name YOB Country Start
Num
Time Swim T1 Bike T2 Run
1 Stephane Vander Bruggen 1976 BEL 20647 01:03:07 00:10:04 00:02:22 00:30:17 00:02:11 00:18:11
2 Matthew James Williams 1979 NAM 20631 01:03:41 00:10:10 00:02:26 00:31:12 00:02:03 00:17:47
3 Xavier Flynn 1976 AUS 20646 01:04:36 00:11:13 00:02:29 00:31:40 00:02:00 00:17:12
4 Doug Nowak 1978 USA 20635 01:05:29 00:11:20 00:02:33 00:30:43 00:02:07 00:18:44
5 Carl Parker 1976 USA 20636 01:05:31 00:10:00 00:02:28 00:32:07 00:02:03 00:18:50
6 Lee Rantala 1977 CAN 20596 01:06:13 00:11:50 00:02:37 00:30:51 00:02:07 00:18:47
7 James Dean 1977 CAN 20589 01:06:45 00:10:33 00:02:56 00:31:28 00:02:15 00:19:31
8 James Manson 1977 GBR 20611 01:06:54 00:11:16 00:02:34 00:32:01 00:02:10 00:18:51
9 Philip Saunders 1979 GBR 20615 01:07:30 00:11:52 00:02:16 00:32:27 00:02:04 00:18:49
10 Adam Tanner 1978 GBR 20605 01:08:19 00:12:39 00:03:00 00:30:59 00:02:18 00:19:21
11 Jamie Martin 1977 GBR 20610 01:08:47 00:11:53 00:02:32 00:31:44 00:02:15 00:20:21
12 Jason Cutler 1976 GBR 20612 01:08:58 00:11:30 00:02:37 00:32:59 00:02:11 00:19:40
13 Kevin Mertz 1976 CAN 20594 01:09:06 00:09:40 00:02:52 00:33:57 00:02:26 00:20:08
14 Marko Toijanen 1977 CAN 20600 01:09:38 00:11:34 00:02:46 00:33:05 00:02:19 00:19:51
15 David Wiens 1979 CAN 20603 01:09:42 00:11:58 00:02:53 00:32:57 00:02:19 00:19:32
16 Gareth Sylvester Bradley 1976 GBR 20608 01:09:46 00:11:25 00:02:34 00:33:09 00:02:20 00:20:17
17 Ruan Zwanepoel 1975 CAN 20604 01:10:02 00:12:45 00:02:32 00:33:06 00:02:11 00:19:26
18 Josh Hamblyn 1979 NZL 20632 01:10:38 00:12:51 00:02:30 00:33:05 00:02:21 00:19:49
19 Elton Hassall 1976 USA 20634 01:10:41 00:11:47 00:02:29 00:35:26 00:02:05 00:18:52
20 James Barrett 1978 AUS 20645 01:10:42 00:12:14 00:02:45 00:33:51 00:02:16 00:19:34
21 Brendan Curl 1975 USA 20637 01:10:46 00:11:21 00:02:38 00:33:30 00:02:38 00:20:38
22 Jeffery Cameron 1979 CAN 20584 01:11:11 00:12:19 00:03:04 00:32:54 00:02:29 00:20:24
23 Kenta Ando 1976 MAC 20657 01:11:15 00:10:02 00:02:27 00:34:40 00:02:55 00:21:08
24 Bo Simpson 1977 CAN 20598 01:11:19 00:09:04 00:02:47 00:35:08 00:02:28 00:21:51
25 Sergio Salym Pérez Hernández 1977 CAN 20595 01:11:21 00:12:49 00:02:46 00:34:17 00:02:21 00:19:05
26 Ryan Ellis 1979 USA 20633 01:11:22 00:12:17 00:02:59 00:33:27 00:02:35 00:20:03
27 Alexie Calvert Ansari 1979 GBR 20607 01:11:24 00:12:30 00:02:49 00:34:59 00:02:08 00:18:57
28 John Potenza 1975 USA 20639 01:11:31 00:12:14 00:03:09 00:33:32 00:02:25 00:20:09
29 Aldo Alfonso Mata Martinez 1977 MEX 20630 01:11:46 00:11:36 00:02:55 00:33:59 00:02:38 00:20:36
30 Bernardo Garza Torres 1979 MEX 20619 01:11:46 00:11:24 00:02:59 00:34:08 00:02:21 00:20:53
31 Clint May 1977 AUS 20644 01:11:48 00:10:29 00:02:56 00:35:18 00:02:31 00:20:32
32 Yen-Shuen Wang 1979 CAN 20601 01:11:50 00:11:49 00:02:56 00:34:56 00:02:26 00:19:41
33 Dominique Caron 1979 CAN 20585 01:12:04 00:12:46 00:02:43 00:34:41 00:02:21 00:19:31
34 Mike Kotuk 1979 CAN 20593 01:12:05 00:10:31 00:02:41 00:34:15 00:02:32 00:22:03
35 Jason Ingledew 1975 CAN 20591 01:12:08 00:12:18 00:03:08 00:33:05 00:02:22 00:21:13
36 Regis Verliefde 1979 USA 20638 01:12:20 00:12:57 00:02:36 00:34:17 00:02:28 00:20:00
37 Evan Smelquist 1977 CAN 20599 01:12:36 00:12:19 00:02:56 00:36:13 00:02:27 00:18:39
38 David Piercey 1977 USA 20641 01:12:40 00:14:52 00:03:05 00:31:23 00:02:39 00:20:39
39 Brice Van Elswyk 1978 USA 20640 01:12:42 00:12:53 00:03:10 00:34:24 00:02:23 00:19:51
40 Michael Belley 1976 CAN 20581 01:13:05 00:11:35 00:02:58 00:33:17 00:02:40 00:22:32
41 Neil Smith 1973 GBR 20614 01:13:09 00:11:54 00:03:02 00:35:41 00:02:15 00:20:16
42 Rodrigo Cerqueira De Oliveira 1977 BRA 20650 01:13:13 00:12:00 00:03:12 00:34:34 00:02:46 00:20:40
43 Rodolfo Perrusquia Vital 1977 MEX 20629 01:13:27 00:10:11 00:02:35 00:38:23 00:02:23 00:19:53
44 Patrick Ash 1977 CAN 20577 01:13:51 00:12:35 00:02:35 00:34:57 00:02:30 00:21:13
45 Andrew Robertson 1977 CAN 20597 01:14:06 00:12:35 00:02:53 00:16:58 00:19:33 00:22:05
46 James Grantham 1975 GBR 20609 01:14:32 00:12:28 00:02:41 00:37:03 00:02:13 00:20:05
47 Emerson Fabricio Bariani Ribeiro 1975 BRA 20652 01:14:49 00:12:45 00:03:23 00:35:15 00:02:31 00:20:53
48 Andrew Brown 1976 GBR 20606 01:15:04 00:13:04 00:03:03 00:35:56 00:02:36 00:20:23
49 Kevin Knight 1979 CAN 20592 01:15:07 00:11:30 00:03:06 00:37:47 00:02:19 00:20:23
50 Bryan Bell 1976 CAN 20580 01:15:15 00:13:12 00:02:47 00:36:37 00:02:39 00:19:59
51 Mario Violante Vega 1979 MEX 20627 01:15:20 00:11:30 00:03:15 00:37:42 00:02:28 00:20:21
52 Neil Browning 1976 GBR 20613 01:15:45 00:13:54 00:03:01 00:35:54 00:02:26 00:20:27
53 Giuliano Rodrigo Barissa 1975 BRA 20653 01:16:12 00:12:56 00:02:56 00:34:40 00:02:34 00:23:04
54 Richard Cormier 1979 CAN 20586 01:16:29 00:12:55 00:03:09 00:35:28 00:02:52 00:22:03
55 Troy Dashkewytch 1975 CAN 20588 01:16:33 00:11:15 00:03:14 00:37:51 00:02:51 00:21:20
56 Barry O'Donoghue 1977 IRL 20617 01:16:35 00:12:43 00:03:08 00:37:03 00:02:26 00:21:13
57 Gilberto Trejo Cabello 1977 MEX 20623 01:16:36 00:12:49 00:03:05 00:36:21 00:02:45 00:21:34
58 Carlos Alberto Gonzalez Villarreal 1975 MEX 20620 01:17:13 00:12:18 00:02:59 00:36:54 00:02:41 00:22:20
59 Chris Bentley 1979 CAN 20582 01:17:16 00:12:57 00:03:37 00:34:08 00:03:01 00:23:32
60 Edgar Guadalupe Peña Gonzalez 1976 MEX 20622 01:17:51 00:12:21 00:02:52 00:37:21 00:02:33 00:22:42
61 Matt Bedernjak 1976 CAN 20579 01:17:58 00:14:36 00:06:57 00:32:06 00:02:38 00:21:39
62 Robert Gill 1975 GBR 20616 01:18:00 00:12:49 00:03:00 00:36:47 00:02:40 00:22:42
63 Mario Alfredo Ramos Bauche 1975 MEX 20626 01:18:24 00:13:05 00:03:08 00:37:04 00:02:35 00:22:29
64 Ryan Culhane 1977 CAN 20587 01:18:40 00:13:14 00:02:57 00:37:48 00:02:28 00:22:11
65 Jorge Alejandro Pimentel Martinez 1979 MEX 20628 01:18:51 00:12:48 00:03:31 00:37:59 00:03:03 00:21:28
66 Luis Enrique Pacheco Rivera 1978 MEX 20625 01:18:52 00:11:28 00:03:34 00:40:02 00:02:48 00:20:57
67 Juan Manuel Gonzalez Peña 1976 MEX 20624 01:19:24 00:12:38 00:03:03 00:39:02 00:02:33 00:22:07
68 Steve Ambeault 1977 CAN 20576 01:19:43 00:12:41 00:03:18 00:37:50 00:02:47 00:23:04
69 Orlando Garnica Luis 1978 MEX 20621 01:20:01 00:14:19 00:03:20 00:39:12 00:02:26 00:20:41
70 Joel Matthews 1979 BER 20648 01:20:07 00:14:58 00:04:06 00:35:14 00:03:01 00:22:47
71 Jeffrey Bridgeman 1975 CAN 20583 01:20:25 00:14:50 00:03:16 00:36:51 00:02:28 00:22:59
72 Jeff Green 1975 CAN 20590 01:20:44 00:11:26 00:03:09 00:42:12 00:02:18 00:21:37
73 James Wick 1978 CAN 20602 01:21:24 00:13:49 00:03:22 00:37:55 00:02:36 00:23:38
74 Mike Bara 1976 CAN 20578 01:21:44 00:14:26 00:03:25 00:38:21 00:02:37 00:22:53
75 Gustavo Terra 1979 BRA 20655 01:26:44 00:13:27 00:03:24 00:43:55 00:03:02 00:22:54
76 Walter Baptista Cordeiro Netto 1978 BRA 20656 01:26:58 00:14:40 00:03:37 00:40:49 00:03:10 00:24:41
77 Claudio Vinicius Reis De Azevedo 1977 BRA 20651 01:28:30 00:12:24 00:04:30 00:41:08 00:03:33 00:26:53
78 Michael Hughes 1976 IRL 20618 01:40:45 00:23:29 00:04:58 00:43:04 00:03:13 00:25:58
Program notes:

Water temperature 18,9 C Air temperature 18.2C. Wetsuit Swim. Distances Swim 750 m (1 lap) Bike 19.74 Km (2 laps) Run 5 Km (1 lap)